Radiation Dose measured at exhaust stack monitor of Fukushima Daiichi Nuclear Power Station
Date,Time,Unit 5 6 shared exhaust cylinders,Wind Direction,Wind Velocity(m/s)
2021/11/26,00:00,3.9,north-northwest,3.6
2021/11/26,00:10,3.9,north,4.0
2021/11/26,00:20,3.8,northwest,5.5
2021/11/26,00:30,3.7,west-northwest,3.3
2021/11/26,00:40,3.8,west-southwest,3.3
2021/11/26,00:50,3.9,west-southwest,4.1
2021/11/26,01:00,3.8,west-southwest,7.6
2021/11/26,01:10,4.0,west-southwest,8.7
2021/11/26,01:20,4.0,west-southwest,7.8
2021/11/26,01:30,3.8,west-southwest,6.1
2021/11/26,01:40,3.9,west-southwest,5.5
2021/11/26,01:50,3.8,west-southwest,5.3
2021/11/26,02:00,3.8,west-southwest,6.1
2021/11/26,02:10,3.9,west-southwest,6.8
2021/11/26,02:20,3.9,west,6.4
2021/11/26,02:30,4.0,west,7.0
2021/11/26,02:40,3.8,west,5.9
2021/11/26,02:50,3.8,west,4.0
2021/11/26,03:00,4.0,west,2.6
2021/11/26,03:10,3.8,west,3.4
2021/11/26,03:20,4.0,west-southwest,5.5
2021/11/26,03:30,3.9,west,4.9
2021/11/26,03:40,4.0,west-northwest,3.9
2021/11/26,03:50,3.9,northwest,4.2
2021/11/26,04:00,3.7,northwest,4.3
2021/11/26,04:10,4.1,northwest,3.5
2021/11/26,04:20,3.9,north-northwest,4.0
2021/11/26,04:30,3.9,north-northwest,2.0
2021/11/26,04:40,3.9,west-northwest,2.2
2021/11/26,04:50,3.9,west,3.0
2021/11/26,05:00,3.8,west-southwest,5.2
2021/11/26,05:10,3.8,southwest,4.9
2021/11/26,05:20,4.0,southwest,4.8
2021/11/26,05:30,3.8,west-southwest,5.7
2021/11/26,05:40,3.7,southwest,4.8
2021/11/26,05:50,4.1,west-southwest,4.3
2021/11/26,06:00,3.9,west-southwest,4.7
2021/11/26,06:10,4.1,west-southwest,5.1
2021/11/26,06:20,3.9,west-southwest,4.6
2021/11/26,06:30,3.9,west-southwest,5.7
2021/11/26,06:40,3.9,west-northwest,2.3
2021/11/26,06:50,4.0,northwest,2.3
2021/11/26,07:00,3.9,northwest,2.5
2021/11/26,07:10,3.9,west-northwest,5.4
2021/11/26,07:20,4.0,west-northwest,5.0
2021/11/26,07:30,3.9,west-northwest,4.8
2021/11/26,07:40,3.9,west-northwest,3.7
2021/11/26,07:50,4.0,west-northwest,2.3
2021/11/26,08:00,4.0,north-northwest,1.2
2021/11/26,08:10,4.0,northwest,1.2
2021/11/26,08:20,3.9,south,1.5
2021/11/26,08:30,4.0,south-southwest,2.3
2021/11/26,08:40,4.0,west-southwest,7.1
2021/11/26,08:50,3.8,west-southwest,7.4
2021/11/26,09:00,4.0,west-southwest,9.2
2021/11/26,09:10,3.9,west-southwest,7.0
2021/11/26,09:20,3.9,west-southwest,8.2
2021/11/26,09:30,3.9,west-southwest,7.8
2021/11/26,09:40,3.9,west,8.3
2021/11/26,09:50,3.7,west-southwest,8.3
2021/11/26,10:00,3.9,west,8.3
2021/11/26,10:10,3.8,west,7.0
2021/11/26,10:20,4.0,west-southwest,9.5
2021/11/26,10:30,4.0,west-southwest,9.0
2021/11/26,10:40,4.0,west-southwest,7.2
2021/11/26,10:50,3.8,west-southwest,9.5
2021/11/26,11:00,4.0,west-southwest,8.6
2021/11/26,11:10,3.8,west,7.9
2021/11/26,11:20,3.9,west-southwest,6.4
2021/11/26,11:30,3.9,west,8.7
2021/11/26,11:40,3.8,west,8.5
2021/11/26,11:50,3.9,west,11.3
2021/11/26,12:00,3.9,west,7.4
2021/11/26,12:10,4.0,west,9.4
2021/11/26,12:20,4.0,west,8.7
2021/11/26,12:30,3.8,west,7.5
2021/11/26,12:40,3.9,west,6.4
2021/11/26,12:50,3.7,west,10.0
2021/11/26,13:00,4.0,west-northwest,9.5
2021/11/26,13:10,4.0,west,8.2
2021/11/26,13:20,4.1,west,9.4
2021/11/26,13:30,3.9,west,8.7
2021/11/26,13:40,3.9,west,7.8
2021/11/26,13:50,3.7,west,7.5
2021/11/26,14:00,3.9,west,7.0
2021/11/26,14:10,4.1,west,7.1
2021/11/26,14:20,3.9,west,5.4
2021/11/26,14:30,3.9,west-northwest,5.5
2021/11/26,14:40,4.0,west-northwest,3.3
2021/11/26,14:50,3.7,north-northeast,2.3
2021/11/26,15:00,3.9,north,3.5
2021/11/26,15:10,3.8,north,3.7
2021/11/26,15:20,4.0,north-northwest,2.9
2021/11/26,15:30,3.8,north-northwest,3.3
2021/11/26,15:40,3.9,north-northwest,3.7
2021/11/26,15:50,3.9,north-northwest,2.6
2021/11/26,16:00,3.9,northwest,3.6
2021/11/26,16:10,3.8,northwest,3.2
2021/11/26,16:20,4.1,northwest,3.2
2021/11/26,16:30,3.9,north-northwest,3.6
2021/11/26,16:40,4.0,northwest,3.6
2021/11/26,16:50,3.9,north-northwest,3.2
2021/11/26,17:00,3.8,northwest,3.8
2021/11/26,17:10,3.9,north-northwest,3.7
2021/11/26,17:20,4.0,north-northwest,4.1
2021/11/26,17:30,3.9,north,4.0
2021/11/26,17:40,3.9,north,5.8
2021/11/26,17:50,4.0,north,6.7
2021/11/26,18:00,4.0,north,6.5
2021/11/26,18:10,3.9,north-northwest,6.6
2021/11/26,18:20,3.9,north-northwest,7.1
2021/11/26,18:30,3.8,north-northwest,7.7
2021/11/26,18:40,3.8,north-northwest,8.3
2021/11/26,18:50,3.9,north-northwest,6.5
2021/11/26,19:00,3.9,north-northwest,3.7
2021/11/26,19:10,3.9,north-northwest,2.6
2021/11/26,19:20,4.0,north,2.6
2021/11/26,19:30,3.9,north,3.7
2021/11/26,19:40,3.9,north,3.5
2021/11/26,19:50,3.9,north-northeast,3.0
2021/11/26,20:00,3.9,north-northeast,2.5
2021/11/26,20:10,3.9,north,3.8
2021/11/26,20:20,3.7,north,5.0
2021/11/26,20:30,4.0,north,5.0
2021/11/26,20:40,3.9,north-northwest,3.8
2021/11/26,20:50,4.0,north,4.1
2021/11/26,21:00,3.9,north,2.5
2021/11/26,21:10,4.0,north,1.5
2021/11/26,21:20,3.9,-,CALM
2021/11/26,21:30,3.8,north-northwest,1.7
2021/11/26,21:40,3.9,north-northwest,2.0
2021/11/26,21:50,3.9,north-northwest,2.8
2021/11/26,22:00,4.0,north-northwest,3.5
2021/11/26,22:10,3.9,northwest,3.9
2021/11/26,22:20,4.1,northwest,2.3
2021/11/26,22:30,4.0,north,2.8
2021/11/26,22:40,4.0,north,4.4
2021/11/26,22:50,4.0,north,5.2
2021/11/26,23:00,4.1,north,4.9
2021/11/26,23:10,3.9,north,6.1
2021/11/26,23:20,3.9,north,6.6
2021/11/26,23:30,3.8,north,5.7
2021/11/26,23:40,3.7,north,5.3
2021/11/26,23:50,3.9,north-northwest,5.1
